TimeAKDT,TemperatureF,Dew PointF,Humidity,Sea Level PressureIn,VisibilityMPH,Wind Direction,Wind SpeedMPH,Gust SpeedMPH,PrecipitationIn,Events,Conditions,WindDirDegrees,DateUTC
12:16 AM,3.2,-0.4,85,30.59,7.0,Calm,Calm,-,N/A,,Overcast,0,2012-10-21 08:16:00
12:36 AM,6.8,5.0,92,30.59,8.0,Calm,Calm,-,N/A,,Overcast,0,2012-10-21 08:36:00
12:56 AM,8.6,8.6,100,30.59,8.0,Calm,Calm,-,N/A,,Overcast,0,2012-10-21 08:56:00
1:16 AM,8.6,6.8,92,30.59,10.0,ESE,3.5,-,N/A,,Overcast,110,2012-10-21 09:16:00
1:36 AM,10.4,5.0,79,30.59,10.0,Calm,Calm,-,N/A,,Overcast,0,2012-10-21 09:36:00
1:56 AM,10.4,6.8,85,30.59,10.0,Calm,Calm,-,N/A,,Overcast,0,2012-10-21 09:56:00
2:16 AM,10.4,8.6,92,30.59,10.0,Calm,Calm,-,N/A,,Overcast,0,2012-10-21 10:16:00
2:36 AM,12.2,8.6,85,30.60,10.0,Calm,Calm,-,N/A,,Overcast,0,2012-10-21 10:36:00
2:56 AM,12.2,10.4,92,30.60,10.0,Calm,Calm,-,N/A,,Overcast,0,2012-10-21 10:56:00
3:16 AM,12.2,8.6,85,30.60,10.0,Calm,Calm,-,N/A,,Overcast,0,2012-10-21 11:16:00
3:36 AM,12.2,10.4,92,30.60,10.0,Calm,Calm,-,N/A,,Overcast,0,2012-10-21 11:36:00
3:56 AM,12.2,8.6,85,30.60,10.0,Calm,Calm,-,N/A,,Overcast,0,2012-10-21 11:56:00
4:16 AM,12.2,10.4,92,30.60,10.0,Calm,Calm,-,N/A,,Overcast,0,2012-10-21 12:16:00
4:36 AM,12.2,10.4,92,30.60,10.0,Calm,Calm,-,N/A,,Overcast,0,2012-10-21 12:36:00
4:56 AM,12.2,10.4,92,30.61,10.0,Calm,Calm,-,N/A,,Overcast,0,2012-10-21 12:56:00
5:16 AM,12.2,10.4,92,30.60,10.0,Calm,Calm,-,N/A,,Overcast,0,2012-10-21 13:16:00
5:36 AM,12.2,10.4,92,30.60,10.0,Calm,Calm,-,N/A,,Overcast,0,2012-10-21 13:36:00
5:56 AM,12.2,10.4,92,30.60,10.0,Calm,Calm,-,N/A,,Overcast,0,2012-10-21 13:56:00
6:16 AM,12.2,10.4,92,30.61,5.0,Calm,Calm,-,N/A,,Overcast,0,2012-10-21 14:16:00
6:36 AM,12.2,10.4,92,30.61,3.0,Calm,Calm,-,N/A,,Overcast,0,2012-10-21 14:36:00
6:56 AM,12.2,10.4,92,30.61,1.8,Calm,Calm,-,N/A,,Overcast,0,2012-10-21 14:56:00
7:09 AM,12.2,10.4,92,30.61,0.5,Calm,Calm,-,N/A,Fog,Light Freezing Fog,0,2012-10-21 15:09:00
7:16 AM,12.2,10.4,92,30.61,0.5,Calm,Calm,-,N/A,,Overcast,0,2012-10-21 15:16:00
7:26 AM,12.2,10.4,92,30.61,0.5,Calm,Calm,-,N/A,Fog,Light Freezing Fog,0,2012-10-21 15:26:00
7:36 AM,12.2,10.4,92,30.61,0.5,Calm,Calm,-,N/A,,Unknown,0,2012-10-21 15:36:00
7:56 AM,12.2,10.4,92,30.60,0.8,Calm,Calm,-,N/A,,Unknown,0,2012-10-21 15:56:00
8:16 AM,12.2,10.4,92,30.60,0.5,Calm,Calm,-,N/A,,Unknown,0,2012-10-21 16:16:00
8:36 AM,12.2,10.4,92,30.60,0.5,Calm,Calm,-,N/A,,Unknown,0,2012-10-21 16:36:00
8:56 AM,12.2,10.4,92,30.60,0.5,Calm,Calm,-,N/A,,Unknown,0,2012-10-21 16:56:00
9:16 AM,12.2,10.4,92,30.59,0.8,Calm,Calm,-,N/A,,Overcast,0,2012-10-21 17:16:00
9:36 AM,12.2,10.4,92,30.60,0.8,Calm,Calm,-,N/A,,Overcast,0,2012-10-21 17:36:00
9:46 AM,12.2,10.4,92,30.60,1.0,Calm,Calm,-,N/A,,Overcast,0,2012-10-21 17:46:00
9:56 AM,12.2,10.4,92,30.60,1.0,East,3.5,-,N/A,,Overcast,90,2012-10-21 17:56:00
9:59 AM,12.2,10.4,92,30.60,2.0,Calm,Calm,-,N/A,,Overcast,0,2012-10-21 17:59:00
10:16 AM,12.2,10.4,92,30.61,2.0,Calm,Calm,-,N/A,,Overcast,0,2012-10-21 18:16:00
10:36 AM,12.2,10.4,92,30.61,1.0,Calm,Calm,-,N/A,,Overcast,0,2012-10-21 18:36:00
10:56 AM,12.2,10.4,92,30.61,1.0,Calm,Calm,-,N/A,,Overcast,0,2012-10-21 18:56:00
11:09 AM,12.2,12.2,100,30.61,0.8,Calm,Calm,-,N/A,,Overcast,0,2012-10-21 19:09:00
11:16 AM,12.2,10.4,92,30.61,0.8,Calm,Calm,-,N/A,,Overcast,0,2012-10-21 19:16:00
11:36 AM,12.2,10.4,92,30.60,1.8,East,3.5,-,N/A,,Overcast,100,2012-10-21 19:36:00
11:56 AM,12.2,10.4,92,30.60,1.5,East,4.6,-,N/A,,Overcast,90,2012-10-21 19:56:00
12:12 PM,12.2,10.4,92,30.59,3.0,Calm,Calm,-,N/A,,Overcast,0,2012-10-21 20:12:00
12:16 PM,12.2,10.4,92,30.59,3.0,East,4.6,-,N/A,,Overcast,100,2012-10-21 20:16:00
12:36 PM,12.2,10.4,92,30.59,6.0,ESE,3.5,-,N/A,,Overcast,120,2012-10-21 20:36:00
12:56 PM,12.2,10.4,92,30.59,10.0,Calm,Calm,-,N/A,,Overcast,0,2012-10-21 20:56:00
1:16 PM,12.2,10.4,92,30.59,10.0,Calm,Calm,-,N/A,,Overcast,0,2012-10-21 21:16:00
1:36 PM,14.0,10.4,86,30.58,10.0,Calm,Calm,-,N/A,,Overcast,0,2012-10-21 21:36:00
1:56 PM,14.0,10.4,86,30.58,10.0,Calm,Calm,-,N/A,,Overcast,0,2012-10-21 21:56:00
2:16 PM,14.0,12.2,93,30.58,10.0,Calm,Calm,-,N/A,,Overcast,0,2012-10-21 22:16:00
2:36 PM,15.8,12.2,86,30.57,10.0,East,5.8,-,N/A,,Overcast,90,2012-10-21 22:36:00
2:56 PM,15.8,12.2,86,30.57,7.0,ENE,5.8,-,N/A,,Overcast,60,2012-10-21 22:56:00
3:16 PM,15.8,12.2,86,30.57,10.0,ENE,5.8,-,N/A,,Overcast,70,2012-10-21 23:16:00
3:36 PM,15.8,12.2,86,30.57,10.0,Calm,Calm,-,N/A,,Overcast,0,2012-10-21 23:36:00
3:56 PM,15.8,12.2,86,30.57,9.0,NE,5.8,-,N/A,,Overcast,50,2012-10-21 23:56:00
4:16 PM,15.8,12.2,86,30.56,7.0,East,3.5,-,N/A,,Overcast,100,2012-10-22 00:16:00
4:36 PM,15.8,12.2,86,30.55,10.0,Calm,Calm,-,N/A,,Overcast,0,2012-10-22 00:36:00
4:56 PM,15.8,12.2,86,30.55,10.0,East,3.5,-,N/A,,Overcast,90,2012-10-22 00:56:00
5:16 PM,15.8,12.2,86,30.54,10.0,East,3.5,-,N/A,,Overcast,90,2012-10-22 01:16:00
5:36 PM,15.8,12.2,86,30.54,10.0,East,4.6,-,N/A,,Overcast,80,2012-10-22 01:36:00
5:56 PM,15.8,12.2,86,30.54,10.0,NE,5.8,-,N/A,,Overcast,50,2012-10-22 01:56:00
6:16 PM,15.8,12.2,86,30.54,10.0,ENE,5.8,-,N/A,,Overcast,70,2012-10-22 02:16:00
6:36 PM,15.8,12.2,86,30.54,10.0,NE,6.9,-,N/A,,Overcast,50,2012-10-22 02:36:00
6:56 PM,15.8,12.2,86,30.53,10.0,ENE,3.5,-,N/A,,Overcast,70,2012-10-22 02:56:00
7:16 PM,15.8,12.2,86,30.52,10.0,ENE,4.6,-,N/A,,Overcast,60,2012-10-22 03:16:00
7:36 PM,15.8,12.2,86,30.52,5.0,ENE,3.5,-,N/A,,Overcast,70,2012-10-22 03:36:00
7:56 PM,15.8,12.2,86,30.52,10.0,Calm,Calm,-,N/A,,Overcast,0,2012-10-22 03:56:00
8:16 PM,15.8,12.2,86,30.52,9.0,Calm,Calm,-,N/A,,Overcast,0,2012-10-22 04:16:00
8:36 PM,15.8,12.2,86,30.52,7.0,Calm,Calm,-,N/A,,Overcast,0,2012-10-22 04:36:00
8:56 PM,14.0,12.2,93,30.51,10.0,Calm,Calm,-,N/A,,Overcast,0,2012-10-22 04:56:00
9:16 PM,14.0,12.2,93,30.51,5.0,Calm,Calm,-,N/A,,Overcast,0,2012-10-22 05:16:00
9:36 PM,15.8,12.2,86,30.51,6.0,Calm,Calm,-,N/A,,Overcast,0,2012-10-22 05:36:00
9:56 PM,14.0,12.2,93,30.50,5.0,ENE,4.6,-,N/A,,Overcast,60,2012-10-22 05:56:00
10:16 PM,14.0,12.2,93,30.50,10.0,ENE,3.5,-,N/A,,Overcast,70,2012-10-22 06:16:00
10:36 PM,14.0,10.4,86,30.49,5.0,NNE,4.6,-,N/A,,Overcast,30,2012-10-22 06:36:00
10:56 PM,12.2,10.4,92,30.49,8.0,East,3.5,-,N/A,,Overcast,90,2012-10-22 06:56:00
11:16 PM,14.0,10.4,86,30.48,4.0,East,3.5,-,N/A,,Overcast,90,2012-10-22 07:16:00
11:36 PM,14.0,12.2,93,30.48,2.0,NNE,3.5,-,N/A,,Overcast,30,2012-10-22 07:36:00
11:56 PM,12.2,10.4,92,30.48,2.0,NE,5.8,-,N/A,,Overcast,50,2012-10-22 07:56:00